Tracking 26955 objects as of 3-Feb-2023
HD Live streaming from Space Station
objects crossing your sky now

DELTA 1 DEB

Track DELTA 1 DEB now!
10-day predictions


NORAD ID: 21545
Int'l Code: 1975-052GZ
Perigee: 1,010.6 km
Apogee: 1,360.3 km
Inclination: 99.7 °
Period: 109.0 minutes
Semi major axis: 7556 km
RCS: 0.0066 m2 (small)
Launch date: June 12, 1975
Source: United States (US)
Launch site: AIR FORCE WESTERN TEST RANGE (AFWTR)

Note: This is SATELLITE DEBRIS
Your satellite tracking list
Your tracking list is empty




NASA's NSSDC Master Catalog

Two Line Element Set (TLE):
1 21545U 75052GZ  23033.89616927  .00000139  00000-0  37258-3 0  9996
2 21545  99.6525 253.5545 0231416 112.0496 263.3488 13.21673118530571
Source of the keplerian elements: AFSPC